Rutland, VT

2:13 AM EDT on August 20, 2017 (GMT -0400)
Rutland State

Weather History for KRUT - October, 2010

Change the Weather History Date:

Wednesday, October 6, 2010

  Actual Average Record
Temperature  
Mean Temperature 54 °F -  
Max Temperature 57 °F - 80 °F (1990)
Min Temperature 51 °F - 21 °F (1965)
Degree Days  
Heating Degree Days 11    
Month to date heating degree days  
Since 1 July heating degree days  
Cooling Degree Days 0    
Month to date cooling degree days  
Year to date cooling degree days  
Growing Degree Days 4 (Base 50)    
Moisture  
Dew Point 47 °F    
Average Humidity 77    
Maximum Humidity 88    
Minimum Humidity 63    
Precipitation  
Precipitation 0.48 in - 1.28 in (1991)
Month to date precipitation  
Year to date precipitation  
Sea Level Pressure  
Sea Level Pressure 29.98 in    
Wind  
Wind Speed 7 mph (SSE)    
Max Wind Speed 16 mph    
Max Gust Speed 24 mph    
Visibility 10 miles    
Events      
T = Trace of Precipitation, MM = Missing Value Source: NWS Daily Summary

Daily Weather History Graph

Daily Weather History Graph

Search for Another Location

Airport or City:

Trip Planner

Search our weather history database for the weather conditions in past years. The results will help you decide how hot, cold, wet, or windy it might be!

Date:

Astronomy

Oct. 06, 2010 Rise Set
Actual Time 6:55 AM EDT 6:24 PM EDT
Civil Twilight 6:26 AM EDT 6:52 PM EDT
Nautical Twilight 5:53 AM EDT 7:25 PM EDT
Astronomical Twilight 5:19 AM EDT 7:58 PM EDT
Moon 5:27 AM EDT (10/6) 5:25 PM EDT (10/6)
Length of Visible Light 12h 26m
Length of Day
11h 29m
Waning Crescent, 2% of the Moon is Illuminated
Oct 6
Waning Crescent
Oct 7
New
Oct 14
First Quarter
Oct 22
Full
Oct 30
Last Quarter

Hourly Weather History & Observations

Time (EDT) Temp. Dew Point Humidity Pressure Visibility Wind Dir Wind Speed Gust Speed Precip Events Conditions
12:15 AM 57.2 °F 46.4 °F 67% 30.08 in 10.0 mi SE 6.9 mph - N/A   Overcast
12:35 AM 57.2 °F 46.4 °F 67% 30.08 in 10.0 mi SSE 5.8 mph - N/A   Overcast
12:55 AM 57.2 °F 46.4 °F 67% 30.07 in 10.0 mi SSE 4.6 mph - N/A   Overcast
1:15 AM 57.2 °F 46.4 °F 67% 30.07 in 10.0 mi SSW 3.5 mph - N/A   Overcast
1:35 AM 57.2 °F 46.4 °F 67% 30.06 in 10.0 mi SSE 4.6 mph - N/A   Overcast
1:55 AM 57.2 °F 46.4 °F 67% 30.06 in 10.0 mi SE 6.9 mph 17.3 mph N/A   Overcast
2:15 AM 57.2 °F 44.6 °F 63% 30.06 in 10.0 mi SSE 5.8 mph - N/A   Overcast
2:35 AM 57.2 °F 44.6 °F 63% 30.05 in 10.0 mi ESE 10.4 mph 18.4 mph N/A   Overcast
2:55 AM 57.2 °F 44.6 °F 63% 30.05 in 10.0 mi SE 9.2 mph - N/A   Overcast
3:15 AM 57.2 °F 44.6 °F 63% 30.05 in 10.0 mi SE 13.8 mph 18.4 mph N/A   Overcast
3:35 AM 57.2 °F 44.6 °F 63% 30.04 in 10.0 mi ESE 16.1 mph 24.2 mph N/A   Overcast
3:55 AM 55.4 °F 46.4 °F 72% 30.05 in 10.0 mi ESE 15.0 mph 20.7 mph N/A   Overcast
4:15 AM 53.6 °F 48.2 °F 82% 30.05 in 10.0 mi ESE 10.4 mph - N/A   Overcast
4:35 AM 53.6 °F 46.4 °F 77% 30.06 in 10.0 mi SSE 6.9 mph - N/A   Overcast
4:55 AM 53.6 °F 46.4 °F 77% 30.06 in 10.0 mi SSE 4.6 mph - N/A   Overcast
5:15 AM 55.4 °F 46.4 °F 72% 30.05 in 10.0 mi South 4.6 mph - N/A   Overcast
5:35 AM 53.6 °F 46.4 °F 77% 30.05 in 10.0 mi South 4.6 mph - N/A   Overcast
5:55 AM 53.6 °F 44.6 °F 72% 30.05 in 10.0 mi SSE 3.5 mph - N/A   Overcast
6:15 AM 53.6 °F 46.4 °F 77% 30.04 in 10.0 mi SE 5.8 mph - N/A   Overcast
6:35 AM 53.6 °F 46.4 °F 77% 30.04 in 10.0 mi SSE 5.8 mph - N/A   Overcast
6:55 AM 53.6 °F 44.6 °F 72% 30.03 in 10.0 mi SSE 9.2 mph - N/A   Overcast
7:15 AM 53.6 °F 42.8 °F 67% 30.03 in 10.0 mi SSE 9.2 mph 17.3 mph N/A   Overcast
7:35 AM 51.8 °F 44.6 °F 76% 30.02 in 10.0 mi SE 6.9 mph - N/A   Overcast
7:55 AM 51.8 °F 44.6 °F 76% 30.01 in 10.0 mi South 8.1 mph - N/A   Overcast
8:15 AM 51.8 °F 44.6 °F 76% 30.01 in 10.0 mi SSW 5.8 mph - N/A   Overcast
8:35 AM 51.8 °F 44.6 °F 76% 30.01 in 10.0 mi SW 8.1 mph - N/A   Overcast
8:55 AM 51.8 °F 44.6 °F 76% 30.01 in 9.0 mi SSW 9.2 mph - N/A   Overcast
9:15 AM 51.8 °F 44.6 °F 76% 30.01 in 10.0 mi SSE 3.5 mph - N/A   Overcast
9:55 AM 53.6 °F 46.4 °F 77% 30.01 in 10.0 mi Calm Calm - N/A   Overcast
10:15 AM 51.8 °F 46.4 °F 82% 29.99 in 10.0 mi West 4.6 mph - 0.02 in   Overcast
10:35 AM 51.8 °F 46.4 °F 82% 29.99 in 10.0 mi West 6.9 mph - 0.04 in   Overcast
10:55 AM 51.8 °F 48.2 °F 88% 29.98 in 10.0 mi West 4.6 mph - 0.04 in   Overcast
11:15 AM 53.6 °F 46.4 °F 77% 29.97 in 10.0 mi SW 3.5 mph - 0.01 in   Overcast
11:35 AM 53.6 °F 48.2 °F 82% 29.96 in 10.0 mi Calm Calm - 0.02 in   Overcast
11:55 AM 53.6 °F 48.2 °F 82% 29.95 in 10.0 mi SE 4.6 mph - 0.03 in   Overcast
12:15 PM 55.4 °F 48.2 °F 77% 29.93 in 10.0 mi South 3.5 mph - N/A   Overcast
12:35 PM 53.6 °F 48.2 °F 82% 29.89 in 10.0 mi South 8.1 mph 17.3 mph N/A   Overcast
12:55 PM 55.4 °F 48.2 °F 77% 29.88 in 10.0 mi SE 8.1 mph - N/A   Overcast
1:15 PM 55.4 °F 48.2 °F 77% 29.87 in 10.0 mi ESE 5.8 mph - N/A   Overcast
1:35 PM 53.6 °F 48.2 °F 82% 29.87 in 10.0 mi ESE 12.7 mph 17.3 mph N/A   Overcast
1:55 PM 53.6 °F 48.2 °F 82% 29.85 in 10.0 mi East 8.1 mph - 0.01 in   Overcast
2:15 PM 53.6 °F 48.2 °F 82% 29.84 in 10.0 mi SSW 3.5 mph - 0.03 in   Overcast
2:35 PM 53.6 °F 48.2 °F 82% 29.85 in 10.0 mi WSW 9.2 mph - 0.05 in   Overcast
2:55 PM 51.8 °F 48.2 °F 88% 29.85 in 10.0 mi WSW 5.8 mph - 0.10 in   Overcast
3:15 PM 51.8 °F 48.2 °F 88% 29.85 in 9.0 mi WSW 5.8 mph - 0.07 in   Overcast
3:35 PM 51.8 °F 48.2 °F 88% 29.85 in 9.0 mi South 3.5 mph - 0.15 in   Mostly Cloudy
3:55 PM 51.8 °F 48.2 °F 88% 29.83 in 5.0 mi SSE 3.5 mph - 0.20 in   Overcast
4:15 PM 51.8 °F 48.2 °F 88% 29.82 in 7.0 mi NNW 3.5 mph - 0.06 in   Overcast
4:35 PM 51.8 °F 48.2 °F 88% 29.83 in 8.0 mi WSW 4.6 mph - 0.09 in   Overcast
4:55 PM 51.8 °F 48.2 °F 88% 29.82 in 5.0 mi Calm Calm - 0.10 in   Mostly Cloudy
5:15 PM 51.8 °F 46.4 °F 82% 29.82 in 9.0 mi SE 4.6 mph - N/A   Overcast
5:35 PM 51.8 °F 46.4 °F 82% 29.81 in 5.0 mi SSE 3.5 mph - N/A   Overcast
5:55 PM 50.0 °F 46.4 °F 87% 29.80 in 5.0 mi Calm Calm - 0.01 in   Overcast
6:15 PM 50.0 °F 46.4 °F 87% 29.79 in 10.0 mi Calm Calm - N/A   Overcast
6:35 PM 50.0 °F 46.4 °F 87% 29.79 in 10.0 mi Calm Calm - N/A   Mostly Cloudy
6:55 PM 50.0 °F 46.4 °F 87% 29.78 in 9.0 mi Calm Calm - N/A   Overcast
7:15 PM 50.0 °F 46.4 °F 87% 29.77 in 10.0 mi Calm Calm - N/A   Overcast
7:35 PM 50.0 °F 46.4 °F 87% 29.77 in 10.0 mi Calm Calm - N/A   Overcast
7:55 PM 48.2 °F 46.4 °F 93% 29.75 in 9.0 mi Calm Calm - N/A   Overcast
8:15 PM 48.2 °F 46.4 °F 93% 29.75 in 8.0 mi Calm Calm - N/A   Overcast
8:35 PM 48.2 °F 46.4 °F 93% 29.74 in 5.0 mi Calm Calm - N/A   Mostly Cloudy
8:55 PM 48.2 °F 46.4 °F 93% 29.72 in 9.0 mi Calm Calm - N/A   Overcast
9:15 PM 48.2 °F 46.4 °F 93% 29.70 in 8.0 mi Calm Calm - N/A   Overcast
9:35 PM 48.2 °F 46.4 °F 93% 29.69 in 5.0 mi Calm Calm - N/A   Overcast
9:55 PM 48.2 °F 46.4 °F 93% 29.67 in 8.0 mi NNW 3.5 mph - N/A   Overcast
10:15 PM 48.2 °F 46.4 °F 93% 29.66 in 7.0 mi Calm Calm - N/A   Overcast
10:35 PM 48.2 °F 46.4 °F 93% 29.64 in 6.0 mi Calm Calm - N/A   Mostly Cloudy
10:55 PM 48.2 °F 46.4 °F 93% 29.63 in 7.0 mi Calm Calm - N/A   Mostly Cloudy
11:15 PM 48.2 °F 46.4 °F 93% 29.63 in 10.0 mi WNW 3.5 mph - N/A   Overcast
11:35 PM 48.2 °F 46.4 °F 93% 29.62 in 9.0 mi Calm Calm - N/A   Overcast
11:55 PM 48.2 °F 46.4 °F 93% 29.62 in 3.0 mi Calm Calm - N/A   Overcast